Overview Statistics Trail Chart Weather Telemetry Raw packets
 

This is the latest recevied weather packets stored in our database for station/object SV9TNF-51. If no packets are shown the sender has not sent any weather packets the latest 10 day(s).

<< 3 4 5 6 7 8 9 >>
Time Temp. Humidity Pressure Rain* Wind** Luminosity Snow
1788632570 27.22° C 36% 1014.6 hPa 0 mm 4.47 m/s, 345° - -
1788632270 27.22° C 37% 1014.6 hPa 0 mm 2.68 m/s, 94° - -
1788631970 27.22° C 37% 1014.6 hPa 0 mm 4.02 m/s, 39° - -
1788631670 26.67° C 39% 1014.2 hPa 0 mm 3.13 m/s, 68° - -
1788631370 27.22° C 38% 1014.2 hPa 0 mm 1.79 m/s, 83° - -
1788631069 26.67° C 40% 1014.2 hPa 0 mm 2.24 m/s, 88° - -
1788630769 26.67° C 40% 1014.2 hPa 0 mm 2.68 m/s, 57° - -
1788630469 26.67° C 42% 1014.2 hPa 0 mm 1.79 m/s, 139° - -
1788630170 26.67° C 44% 1014.2 hPa 0 mm 1.79 m/s, 96° - -
1788629869 26.67° C 45% 1014.2 hPa 0 mm 0.89 m/s, 130° - -
1788629569 26.67° C 44% 1014.2 hPa 0 mm 0 m/s - -
1788629268 26.67° C 45% 1014.2 hPa 0 mm 2.24 m/s, 176° - -
1788628968 26.67° C 46% 1014.2 hPa 0 mm 1.79 m/s, 194° - -
1788628669 26.67° C 45% 1014.2 hPa 0 mm 2.68 m/s, 165° - -
1788628368 26.67° C 46% 1014.2 hPa 0 mm 2.68 m/s, 161° - -
1788628068 26.67° C 46% 1014.2 hPa 0 mm 1.34 m/s, 149° - -
1788627802 27.22° C 46% 1014.2 hPa 0 mm 3.13 m/s, 149° - -
1788627468 27.22° C 46% 1014.2 hPa 0 mm 0.89 m/s, 125° - -
1788627168 27.78° C 45% 1014.2 hPa 0 mm 2.68 m/s, 206° - -
1788626868 27.78° C 44% 1014.2 hPa 0 mm 2.68 m/s, 80° - -
1788626568 27.78° C 46% 1014.2 hPa 0 mm 4.02 m/s, 10° - -
1788626268 27.78° C 45% 1014.2 hPa 0 mm 3.13 m/s, 4° - -
1788625974 27.78° C 46% 1014.2 hPa 0 mm 1.34 m/s, 131° - -
1788625668 27.78° C 46% 1014.2 hPa 0 mm 1.79 m/s, 90° - -
1788625367 27.78° C 46% 1014.2 hPa 0 mm 4.47 m/s, 200° - -

* Rain latest hour (hover to see other rain measurements)
** Current wind speed in m/s (hover to see current wind gust speed)